This is the latest recevied weather packets stored in our database for station/object WC4PEM-13. If no packets are shown the sender has not sent any weather packets the latest 10 day(s).
| Time | Temp. | Humidity | Pressure | Rain* | Wind** | Luminosity | Snow |
|---|---|---|---|---|---|---|---|
| 1777940550 | 22.22° C | 76% | 1014.8 hPa | 0 mm | - | - | - |
| 1777940250 | 22.78° C | 75% | 1015.1 hPa | 0 mm | - | - | - |
| 1777939950 | 22.78° C | 75% | 1015.1 hPa | 0 mm | - | - | - |
| 1777939650 | 22.78° C | 75% | 1015.3 hPa | 0 mm | - | - | - |
| 1777939350 | 22.78° C | 74% | 1015 hPa | 0 mm | - | - | - |
| 1777939050 | 23.33° C | 74% | 1014.9 hPa | 0 mm | - | - | - |
| 1777938750 | 23.33° C | 73% | 1014.8 hPa | 0 mm | - | - | - |
| 1777938450 | 23.33° C | 73% | 1014.7 hPa | 0 mm | - | - | - |
| 1777938150 | 23.89° C | 74% | 1014.7 hPa | 0 mm | - | - | - |
| 1777937850 | 23.89° C | 72% | 1014.7 hPa | 0 mm | - | - | - |
| 1777937551 | 23.89° C | 71% | 1014.6 hPa | 0 mm | - | - | - |
| 1777937250 | 23.89° C | 71% | 1014.5 hPa | 0 mm | - | - | - |
| 1777936951 | 24.44° C | 71% | 1014.6 hPa | 0 mm | - | - | - |
| 1777936651 | 24.44° C | 70% | 1014.5 hPa | 0 mm | - | - | - |
| 1777936350 | 24.44° C | 70% | 1014.4 hPa | 0 mm | - | - | - |
| 1777936051 | 24.44° C | 73% | 1014.5 hPa | 0 mm | - | - | - |
| 1777935750 | 25° C | 69% | 1014.6 hPa | 0 mm | - | - | - |
| 1777935451 | 25° C | 69% | 1014.5 hPa | 0 mm | - | - | - |
| 1777935151 | 25° C | 69% | 1014.5 hPa | 0 mm | - | - | - |
| 1777934851 | 25° C | 69% | 1014.5 hPa | 0 mm | - | - | - |
| 1777934551 | 25° C | 69% | 1014.5 hPa | 0 mm | - | - | - |
| 1777934251 | 25° C | 69% | 1014.4 hPa | 0 mm | - | - | - |
| 1777933951 | 24.44° C | 70% | 1014.6 hPa | 0 mm | - | - | - |
| 1777933651 | 25° C | 69% | 1014.6 hPa | 0 mm | - | - | - |
| 1777933351 | 25° C | 69% | 1014.5 hPa | 0 mm | - | - | - |
* Rain latest hour (hover to see other rain measurements)
** Current wind speed in m/s (hover to see current wind gust speed)